Location: *
(48.7358°N, 0.3111°E)
Time: 08:45:50
(UTC+00:00)

Cosmos 1023 Rocket - Pass Details

Date: 22 October 2019
Orbit: 737 x 772 km, 74.1° (Epoch: 19 November)

Event Time Altitude Azimuth Distance (km) Brightness Sun altitude
Exits shadow 04:28:54 30° 215° (SW) 1,335 5.4 -20.4°
Maximum altitude 04:31:30 74° 294° (WNW) 783 4.3 -20.0°
Drops below altitude 10° 04:36:38 10° 20° (NNE) 2,266 7.2 -19.2°
Sets 04:39:00 0° 22° (NNE) 3,190 8.1 -18.8°
